This demonstration page uses our WeatherBlox Daily Observations layout. Learn more.

39.92423, -83.80882

Hourly Observations for July 9, 2016

Temp ( °F °C ) Dew Point ( °F °C ) Humidity (%) Winds ( mph kmh ) Pressure ( in mb ) Visibility ( mi km ) Precip ( " mm )
12:56 am 00:56 Clear 77 25 66 18.8 69 69 WNW 15 24 29.86 1011 10 16.0934 0 0
1:56 am 01:56 Clear 73 22.7 64 17.7 73 73 W 8 13 29.87 1012 10 16.0934 0 0
2:56 am 02:56 Clear 70 21.1 63 17.2 79 79 W 8 13 29.88 1012 10 16.0934 0 0
3:56 am 03:56 Clear 70 21.1 62 16.6 76 76 W 8 13 29.86 1011 10 16.0934 0 0
4:56 am 04:56 Clear 68 20 62 16.6 81 81 W 7 11 29.88 1012 10 16.0934 0 0
5:56 am 05:56 Clear 67 19.4 62 16.6 84 84 WNW 7 11 29.91 1013 10 16.0934 0 0
6:56 am 06:56 Sunny 66 18.8 63 17.2 90 90 W 6 9 29.92 1013 10 16.0934 0 0
7:56 am 07:56 Sunny 69 20.5 64 17.7 84 84 W 7 11 29.93 1014 10 16.0934 0 0
8:56 am 08:56 Sunny 72 22.2 64 17.7 76 76 WNW 8 13 29.94 1014 10 16.0934 0 0
9:56 am 09:56 Sunny 75 23.8 64 17.7 69 69 W 12 19 29.95 1014 10 16.0934 0 0
10:56 am 10:56 Partly Cloudy 77 25 63 17.2 62 62 WNW 13 20 29.95 1014 10 16.0934 0 0
11:56 am 11:56 Mostly Cloudy 78 25.5 63 17.2 60 60 W 14 22 29.96 1015 10 16.0934 0 0
12:56 pm 12:56 Mostly Cloudy 79 26.1 63 17.2 58 58 WNW 12 19 29.96 1015 10 16.0934 0 0
1:56 pm 13:56 Partly Cloudy 81 27.2 63 17.2 54 54 W 16 26 29.96 1015 10 16.0934 0 0
2:56 pm 14:56 Mostly Sunny 82 27.7 63 17.2 53 53 WNW 14 22 29.96 1015 10 16.0934 0 0
3:56 pm 15:56 Mostly Cloudy 81 27.2 62 16.6 52 52 WNW 10 17 29.97 1015 10 16.0934 0 0
4:56 pm 16:56 Mostly Sunny 81 27.2 61 16.1 51 51 W 12 19 29.97 1015 10 16.0934 0 0
5:56 pm 17:56 Mostly Sunny 83 28.3 61 16.1 48 48 WNW 14 22 29.97 1015 10 16.0934 0 0
6:56 pm 18:56 Mostly Sunny 81 27.2 60 15.5 49 49 WNW 15 24 29.97 1015 10 16.0934 0 0
7:56 pm 19:56 Sunny 79 26.1 60 15.5 52 52 NW 10 17 29.98 1015 10 16.0934 0 0
8:56 pm 20:56 Sunny 74 23.3 61 16.1 64 64 NNW 7 11 29.99 1016 10 16.0934 0 0
9:56 pm 21:56 Clear 71 21.6 60 15.5 68 68 NW 6 9 30 1016 10 16.0934 0 0
10:56 pm 22:56 Clear 68 20 60 15.5 75 75 WNW 5 7 30.02 1017 10 16.0934 0 0
11:56 pm 23:56 Clear 67 19.4 61 16.1 81 81 WNW 5 7 30.03 1017 10 16.0934 0 0

Powered by AerisWeather